LFPM 241130Z AUTO 35010KT 6000 OVC024 11/06 Q1028

Les avions qui composent notre flotte

Avion Robin DR400-100

Avion école

(freins aux palonniers)

F-GGJG
   * tarif promotionnel appliqué pendant la formation des élèves non brevetés